FW6606 Weather Reports


time (UTC)temp
C
wind
direction
speed
KPH
gust
KPH
rain 1hr
cm
rain 24hr
cm
rain mn
cm
humidity
%
barometer
mb
20260906011605 26 0 0.0 0.0 0.00 0.38 0.38 96 1012.6
20260906010058 27 0 0.0 0.0 0.00 0.38 0.38 95 1012.7
20260906004614 27 0 0.0 1.6 0.00 0.38 0.38 93 1012.7
20260906003104 27 0 0.0 0.0 0.00 0.38 0.38 95 1012.5
20260906001559 27 0 0.0 0.0 0.00 0.38 0.38 94 1012.5
20260906000111 29 0 0.0 1.6 0.00 0.38 0.38 86 1012.5
20260905234604 29 0 0.0 3.2 0.00 0.38 0.38 86 1012.4
20260905233100 29 0 0.0 3.2 0.00 0.38 0.38 86 1012.3
20260905231557 30 287 0.0 1.6 0.00 0.38 0.38 84 1012.4
20260905230110 30 0 0.0 0.0 0.00 0.38 0.38 87 1012.4
20260905224607 30 0 0.0 3.2 0.00 0.38 0.38 82 1012.2
20260905223056 31 269 1.6 6.4 0.00 0.38 0.38 81 1012.5
20260905221606 31 295 0.0 3.2 0.00 0.38 0.38 80 1012.6
20260905220116 31 0 0.0 9.7 0.00 0.38 0.38 79 1012.7
20260905214605 31 250 3.2 8.0 0.00 0.38 0.38 78 1012.8
20260905213108 32 281 1.6 6.4 0.00 0.38 0.38 78 1013.0
20260905211609 33 300 0.0 3.2 0.00 0.38 0.38 77 1013.1
20260905210104 32 0 0.0 6.4 0.00 0.38 0.38 81 1013.1
20260905204605 31 290 1.6 4.8 0.00 0.38 0.38 82 1013.0
20260905203113 31 231 0.0 4.8 0.18 0.38 0.38 84 1013.0
20260905201604 30 0 0.0 1.6 0.20 0.38 0.38 93 1013.1
20260905200059 27 0 0.0 0.0 0.30 0.38 0.38 97 1013.4
20260905194556 27 0 0.0 1.6 0.36 0.38 0.38 98 1013.7
20260905193104 27 20 0.0 3.2 0.18 0.20 0.20 94 1014.1
20260905191604 27 0 0.0 6.4 0.15 0.18 0.18 94 1014.1
20260905190108 29 270 1.6 12.9 0.05 0.08 0.08 88 1014.1
20260905184603 31 0 0.0 4.8 0.00 0.03 0.03 81 1014.1
20260905183114 32 0 0.0 3.2 0.03 0.03 0.03 82 1014.1
20260905181605 32 0 0.0 1.6 0.03 0.03 0.03 80 1014.3
20260905180109 32 0 0.0 6.4 0.03 0.03 0.03 78 1014.4
20260905174606 30 0 0.0 0.0 0.03 0.03 0.03 94 1014.6
20260905173101 32 0 0.0 1.6 0.00 0.00 0.00 78 1014.6
20260905171605 33 0 0.0 1.6 0.00 0.00 0.00 71 1014.7
20260905170101 32 0 0.0 4.8 0.00 0.00 0.00 80 1014.8
20260905164605 32 0 0.0 1.6 0.00 0.03 0.00 80 1014.9
20260905163101 32 285 0.0 3.2 0.00 0.03 0.00 77 1015.0
20260905161601 31 283 0.0 3.2 0.00 0.03 0.00 79 1015.1
20260905160119 31 0 0.0 6.4 0.00 0.03 0.00 79 1015.1
20260905154557 31 0 0.0 1.6 0.00 0.03 0.00 79 1015.1
20260905153101 31 276 3.2 8.0 0.00 0.03 0.00 79 1015.0
20260905151609 32 0 0.0 1.6 0.00 0.03 0.00 78 1015.0
20260905150057 30 0 0.0 1.6 0.00 0.03 0.00 83 1015.0
20260905144555 30 0 0.0 1.6 0.00 0.03 0.00 87 1015.0
20260905143109 30 0 0.0 3.2 0.00 0.03 0.00 86 1015.1
20260905141602 29 140 0.0 4.8 0.00 0.03 0.00 89 1015.0
20260905140107 27 0 0.0 1.6 0.00 0.03 0.00 100 1015.0
20260905134556 26 0 0.0 0.0 0.00 0.03 0.00 100 1014.8
20260905133106 25 0 0.0 0.0 0.00 0.03 0.00 100 1014.8
20260905131610 25 0 0.0 0.0 0.00 0.03 0.00 100 1014.9
20260905130101 24 0 0.0 0.0 0.00 0.03 0.00 100 1014.7
20260905124557 23 0 0.0 0.0 0.00 0.03 0.00 100 1014.7
20260905123107 23 0 0.0 0.0 0.00 0.03 0.00 100 1014.5
20260905121604 23 0 0.0 0.0 0.00 0.03 0.00 100 1014.5
20260905120113 23 0 0.0 0.0 0.00 0.03 0.00 100 1014.4
20260905114605 23 0 0.0 0.0 0.00 0.03 0.00 100 1014.4
20260905113104 23 0 0.0 0.0 0.00 0.03 0.00 100 1014.2
20260905111611 22 0 0.0 0.0 0.00 0.03 0.00 100 1014.1
20260905110059 23 0 0.0 0.0 0.00 0.03 0.00 100 1014.1
20260905104601 22 0 0.0 0.0 0.00 0.03 0.00 100 1014.0
20260905103102 22 0 0.0 0.0 0.00 0.03 0.00 100 1013.9
20260905101602 23 0 0.0 0.0 0.00 0.03 0.00 100 1013.9
20260905100059 23 0 0.0 0.0 0.00 0.03 0.00 100 1013.8
20260905094557 23 0 0.0 0.0 0.00 0.03 0.00 100 1013.9
20260905093101 23 0 0.0 0.0 0.00 0.03 0.00 100 1013.8
20260905091558 23 0 0.0 0.0 0.00 0.03 0.00 100 1013.7
20260905084606 23 0 0.0 0.0 0.00 0.03 0.00 100 1013.8
20260905083101 23 0 0.0 0.0 0.00 0.03 0.00 100 1013.7
20260905081556 23 0 0.0 0.0 0.00 0.03 0.00 100 1013.6
20260905080056 23 0 0.0 0.0 0.00 0.03 0.00 100 1013.6
20260905074558 23 0 0.0 0.0 0.00 0.03 0.00 100 1013.8
20260905073105 23 0 0.0 0.0 0.00 0.03 0.00 100 1013.6
20260905071557 23 0 0.0 0.0 0.00 0.03 0.00 100 1013.7
20260905070101 23 0 0.0 0.0 0.00 0.03 0.00 100 1013.6
20260905064552 23 0 0.0 0.0 0.00 0.03 0.00 100 1013.6
20260905063059 23 0 0.0 0.0 0.00 0.03 0.00 100 1013.3
20260905061554 23 0 0.0 0.0 0.00 0.03 0.00 100 1013.5
20260905060059 23 0 0.0 0.0 0.00 0.03 0.00 100 1013.7
20260905054602 23 0 0.0 0.0 0.00 0.08 0.00 100 1013.7
20260905053141 23 0 0.0 0.0 0.00 0.08 0.00 100 1013.8
20260905051604 23 0 0.0 0.0 0.00 0.08 0.00 100 1013.9
20260905050059 24 0 0.0 0.0 0.00 0.08 0.00 100 1014.1
20260905044602 24 0 0.0 0.0 0.00 0.41 0.08 100 1014.2
20260905043100 24 0 0.0 0.0 0.00 0.41 0.08 100 1014.3
20260905041558 24 0 0.0 0.0 0.00 0.41 0.08 100 1014.4
20260905040055 24 0 0.0 0.0 0.00 0.41 0.08 100 1014.6
20260905034601 24 0 0.0 0.0 0.00 0.41 0.08 100 1014.7
20260905033103 24 0 0.0 0.0 0.00 0.41 0.08 100 1014.8
20260905031556 24 0 0.0 0.0 0.00 0.41 0.08 100 1014.8
20260905030053 24 0 0.0 0.0 0.00 0.41 0.08 100 1014.9
20260905024623 25 0 0.0 0.0 0.00 0.41 0.08 100 1015.0
20260905023122 25 0 0.0 0.0 0.00 0.41 0.08 100 1015.2
20260905021600 25 0 0.0 0.0 0.00 0.41 0.08 100 1014.9
20260905020106 25 0 0.0 0.0 0.00 0.41 0.08 99 1014.7
20260905014558 25 0 0.0 0.0 0.00 0.41 0.08 99 1014.7
20260905013102 25 0 0.0 0.0 0.00 0.41 0.08 99 1014.5